STARLINK-34496

导读 | 星芒AI

STARLINK-34496 是 SpaceX Starlink 卫星互联网项目中的一颗低轨卫星,属于第6批部署的星链卫星之一。该卫星于2022年发射,运行在约550公里高度的近地轨道,旨在为全球用户提供高速互联网服务。作为Starlink星座的一部分,它通过Ku和Ka频段进行通信,支持星间链路,减少对地面基站的依赖。该计划致力于改善偏远地区的网络接入,同时推动全球宽带覆盖的普及。

基本信息
目录编号:
64476
目录名称:
STARLINK-34496
国际标识:
2025-133E
轨道中心:
EARTH
卫星名称:
STARLINK-34496
卫星全名:
STARLINK-34496
卫星状态:
在轨 (已飞行139 天)
发射日期:
2025-06-23 UTC
国别 :
美国 (US)
星等 :
--
轨道信息
数据来源 国际轨道数据
星历时间: 2025-11-08T22:03:35+0800
1天前
查看轨道信息
半长轴: 6825.438km
偏心率: 0.0001503
轨道倾角: 53.160°
近地点辐角 100.374°
升交点赤经 320.255°
平近点角 259.743°
近地点: 446.277km
远地点: 448.329km
周期: 93.531分钟
每日圈数: 15.395969
详细信息
使用方式:
暂无
2D轨道图
3D轨道图
轨道高度分析图
轨道倾角分析图
轨道综合分析图
查看轨道综合分析图